Santa Rosa, CA

7:09 PM PST on November 23, 2017 (GMT -0800)
Sonoma County

Weather History for KSTS - February, 2014

Change the Weather History Date:

Tuesday, February 25, 2014

  Actual Average Record
Temperature  
Mean Temperature 51 °F 51 °F  
Max Temperature 62 °F 62 °F 74 °F (2016)
Min Temperature 39 °F 41 °F 30 °F (2011)
Degree Days  
Heating Degree Days 14    
Month to date heating degree days 336  
Since 1 July heating degree days 1908  
Cooling Degree Days 0    
Month to date cooling degree days 0  
Year to date cooling degree days 0  
Moisture  
Dew Point 44 °F    
Average Humidity 80    
Maximum Humidity 100    
Minimum Humidity 60    
Precipitation  
Precipitation 0.00 in 0.23 in 2.41 in (2004)
Month to date precipitation 7.09 5.72  
Year to date precipitation 7.19 12.77  
Since 1 July precipitation 9.21  
Sea Level Pressure  
Sea Level Pressure 29.93 in    
Wind  
Wind Speed 4 mph (SW)    
Max Wind Speed 16 mph    
Max Gust Speed 21 mph    
Visibility 6 miles    
Events Fog    
T = Trace of Precipitation, MM = Missing Value Source: NWS Daily Summary

Daily Weather History Graph

Daily Weather History Graph

Search for Another Location

Airport or City:

Trip Planner

Search our weather history database for the weather conditions in past years. The results will help you decide how hot, cold, wet, or windy it might be!

Date:

Astronomy

Feb. 25, 2014 Rise Set
Actual Time 6:48 AM PST 6:00 PM PST
Civil Twilight 6:22 AM PST 6:26 PM PST
Nautical Twilight 5:51 AM PST 6:57 PM PST
Astronomical Twilight 5:20 AM PST 7:28 PM PST
Moon 3:46 AM PST (2/25) 2:14 PM PST (2/25)
Length of Visible Light 12h 04m
Length of Day
11h 11m
Waning Crescent, 17% of the Moon is Illuminated
Feb 25
Waning Crescent
Mar 1
New
Mar 8
First Quarter
Mar 16
Full
Mar 23
Last Quarter

Hourly Weather History & Observations

Time (PST) Temp. Windchill Dew Point Humidity Pressure Visibility Wind Dir Wind Speed Gust Speed Precip Events Conditions
12:53 AM 44.1 °F 42.5 °F 42.1 °F 93% 29.93 in 10.0 mi West 3.5 mph - N/A   Clear
1:53 AM 44.1 °F - 42.1 °F 93% 29.93 in 6.0 mi Calm Calm - N/A   Clear
2:53 AM 41.0 °F 39.0 °F 39.9 °F 96% 29.92 in 8.0 mi NNW 3.5 mph - N/A   Clear
3:53 AM 41.0 °F - 39.9 °F 96% 29.91 in 5.0 mi Calm Calm - N/A   Clear
4:53 AM 41.0 °F 39.0 °F 39.9 °F 96% 29.92 in 8.0 mi SW 3.5 mph - N/A   Clear
5:33 AM 39.9 °F - 39.0 °F 97% 29.94 in 8.0 mi Calm Calm - N/A   Scattered Clouds
5:41 AM 39.9 °F - 39.0 °F 97% 29.95 in 9.0 mi Calm Calm - N/A   Mostly Cloudy
5:53 AM 39.9 °F - 39.0 °F 97% 29.93 in 7.0 mi Calm Calm - N/A   Overcast
6:16 AM 43.0 °F - 42.1 °F 97% 29.96 in 7.0 mi Calm Calm - N/A   Overcast
6:30 AM 43.0 °F - 41.0 °F 93% 29.96 in 7.0 mi Calm Calm - N/A   Mostly Cloudy
6:41 AM 42.1 °F - 41.0 °F 96% 29.96 in 7.0 mi Calm Calm - N/A   Scattered Clouds
6:53 AM 42.1 °F - 41.0 °F 96% 29.95 in 5.0 mi Calm Calm - N/A   Scattered Clouds
7:08 AM 41.0 °F - 39.9 °F 96% 29.96 in 2.5 mi Calm Calm - N/A Fog Shallow Fog
7:27 AM 41.0 °F 38.0 °F 39.9 °F 96% 29.96 in 0.2 mi WNW 4.6 mph - N/A Fog Fog
7:53 AM 42.1 °F 39.2 °F 42.1 °F 100% 29.95 in 0.2 mi West 4.6 mph - N/A Fog Fog
8:53 AM 45.0 °F - 45.0 °F 100% 29.95 in 0.2 mi Calm Calm - N/A Fog Fog
9:28 AM 46.0 °F - 46.0 °F 100% 29.98 in 1.0 mi Calm Calm - N/A   Overcast
9:53 AM 48.0 °F - 46.0 °F 93% 29.96 in 1.0 mi Calm Calm - N/A   Overcast
9:55 AM 48.0 °F - 46.0 °F 93% 29.97 in 3.0 mi Variable 4.6 mph - N/A   Overcast
10:53 AM 52.0 °F - 46.9 °F 83% 29.96 in 5.0 mi South 5.8 mph - N/A   Haze
11:34 AM 54.0 °F - 48.0 °F 80% 29.97 in 6.0 mi South 5.8 mph - N/A   Haze
11:53 AM 57.0 °F - 48.0 °F 72% 29.95 in 6.0 mi South 5.8 mph - N/A   Haze
12:53 PM 60.1 °F - 48.9 °F 67% 29.92 in 6.0 mi Variable 6.9 mph - N/A   Haze
1:53 PM 62.1 °F - 48.9 °F 62% 29.90 in 6.0 mi South 10.4 mph - N/A   Haze
2:53 PM 61.0 °F - 48.9 °F 64% 29.89 in 6.0 mi SSW 9.2 mph - N/A   Haze
3:53 PM 60.1 °F - 48.0 °F 64% 29.89 in 6.0 mi SW 11.5 mph - N/A   Haze
4:53 PM 55.0 °F - 46.9 °F 74% 29.91 in 6.0 mi SW 10.4 mph - N/A   Haze
5:53 PM 53.1 °F - 46.0 °F 77% 29.91 in 6.0 mi South 4.6 mph - N/A   Haze
6:53 PM 52.0 °F - 46.0 °F 80% 29.91 in 10.0 mi SSW 4.6 mph - N/A   Clear
7:53 PM 51.1 °F - 46.0 °F 83% 29.92 in 10.0 mi Calm Calm - N/A   Scattered Clouds
8:53 PM 51.1 °F - 46.0 °F 83% 29.92 in 10.0 mi Calm Calm - N/A   Clear
9:53 PM 50.0 °F - 46.0 °F 86% 29.91 in 10.0 mi NE 3.5 mph - N/A   Clear
10:53 PM 48.9 °F - 46.0 °F 90% 29.89 in 10.0 mi Calm Calm - N/A   Clear
11:53 PM 48.9 °F - 46.0 °F 90% 29.94 in 10.0 mi Calm Calm - N/A   Mostly Cloudy